Orbital Elements at Epoch 2459200.5 (2020-Dec-17.0) TDB
Reference: JPL 18 (heliocentric ecliptic J2000)
Element | Value | Uncertainty (1-sigma) | Units |
e | .1680601268803776 | 7.2174e-08 | |
a | 2.781275241046645 | 2.4061e-08 | au |
q | 2.313853771147093 | 1.9506e-07 | au |
i | 9.813399264450442 | 5.5754e-06 | deg |
node | 152.1283031158901 | 2.8224e-05 | deg |
peri | 238.5758385427536 | 3.168e-05 | deg |
M | 184.4699523667452 | 1.5377e-05 | deg |
tp | 2460026.563344562133 (2023-Mar-23.06334456) | 7.668e-05 | TDB |
period | 1694.198845451846 4.64 | 2.1985e-05 6.019e-08 | d yr |
n | .2124898154466557 | 2.7574e-09 | deg/d |
Q | 3.248696710946197 | 2.8105e-08 | au |
|
| | Orbit Determination Parameters
Additional Information
|